Location: Saint John
(45.2733°N, 66.0633°W)
Time: 03:36:11
(UTC-04:00)

ISS - Visible Passes

Search period start: 30 November 2022 00:00
Search period end: 10 December 2022 00:00
Orbit: 411 x 420 km, 51.6° (Epoch: 30 November)

Date Brightness Start Highest point End Pass type
(mag) Time Alt. Az. Time Alt. Az. Time Alt. Az.
30 Nov -3.0 18:17:15 10° NW 18:20:20 34° NNE 18:20:39 33° NNE visible
01 Dec -2.6 17:28:29 10° NW 17:31:27 29° N 17:34:01 12° ENE visible
01 Dec -1.9 19:05:10 10° WNW 19:06:55 29° WNW 19:06:55 29° WNW visible
02 Dec -3.7 18:16:25 10° NW 18:19:42 57° NNE 18:20:22 45° ENE visible
03 Dec -3.2 17:27:38 10° NW 17:30:50 41° NNE 17:33:57 10° E visible
03 Dec -2.2 19:04:24 10° WNW 19:06:51 35° WSW 19:06:51 35° WSW visible
04 Dec -3.5 18:15:29 10° WNW 18:18:48 67° SSW 18:20:37 24° SE visible
05 Dec -3.9 17:26:37 10° WNW 17:29:58 78° NNE 17:33:17 10° ESE visible
05 Dec -1.1 19:04:06 10° W 19:06:19 17° SW 19:07:34 14° SSW visible
06 Dec -1.7 18:14:44 10° W 18:17:36 27° SW 18:20:28 10° SSE visible
07 Dec -2.5 17:25:37 10° WNW 17:28:49 44° SW 17:31:59 10° SE visible
08 Dec -0.3 18:15:04 10° WSW 18:16:07 11° SW 18:17:09 10° SSW visible
09 Dec -0.7 17:24:58 10° W 17:27:22 19° SW 17:29:45 10° S visible
